Regional Weather Roundup
Issued by NWS Charleston, SC

Current Version | Previous Version | Text Only | Print | Product List | Glossary Off
Versions: 1 2 3 4 5 6 7 8 9 10 11 12 13 14 15 16 17 18 19 20 21 22 23 24 25 26 27 28 29 30 31 32 33 34 35 36 37 38 39 40 41 42 43 44 45 46 47 48 49 50

000
ASUS42 KCHS 291612
RWRCHS

REGIONAL WEATHER ROUNDUP
NATIONAL WEATHER SERVICE CHARLESTON SC
1200 PM EDT MON JUN 29 2015

NOTE: "FAIR" INDICATES FEW OR NO CLOUDS BELOW 12,000 FEET WITH NO
SIGNIFICANT WEATHER AND/OR OBSTRUCTIONS TO VISIBILITY.

NOT ALL STATIONS ARE QUALITY CONTROLLED BY THE NATIONAL
WEATHER SERVICE. USE DATA WITH CAUTION...ESPECIALLY
DEWPOINT OBSERVATIONS.

SCZ027-030-031-034>040-042>050-291700-
...SOUTHEAST SOUTH CAROLINA...

CITY           SKY/WX    TMP DP  RH WIND       PRES   REMARKS
N CHARLESTON   MOSUNNY   86  60  41 W9        30.00R
WATERFRONT PAR   N/A     84  63  49 W7        29.97S
MOUNT PLEASANT FAIR      88  61  40 W12       30.00S
JOHNS ISLAND   FAIR      86  64  48 SW8       30.00S
PINOPOLIS      NOT AVBL
MONCKS CORNER  FAIR      88  57  35 W6        29.99S
SUMMERVILLE    FAIR      86  63  45 SW7       30.01S
BEAUFORT MCAS  MOSUNNY   85  65  51 NW6       30.01S
BEAUFORT ARPT  FAIR      86  66  51 W7        30.01S
HILTON HEAD IS MOSUNNY   86  68  54 W3        30.02F
WALTERBORO     SUNNY     84  57  39 NW6       30.01S
ALLENDALE      FAIR      86  59  39 W8G15     30.00S

...SOUTHERN MIDLANDS AND PEE DEE...

CITY           SKY/WX    TMP DP  RH WIND       PRES   REMARKS
GEORGETOWN     NOT AVBL
KINGSTREE      NOT AVBL
ORANGEBURG     SUNNY     86  53  32 NW14G23   29.99F
BARNWELL       FAIR      88  57  35 SW12G20   30.01S
AIKEN          FAIR     N/A N/A N/A W12G24    30.05S
MANNING        NOT AVBL
COLUMBIA       MOSUNNY   87  54  32 W12G21    29.98S
SUMTER         SUNNY     85  55  36 SW17G23   29.97S
FLORENCE       SUNNY     87  56  34 SW12      29.97S
MYRTLE BEACH   MOSUNNY   88  70  55 SW7       29.99S HX  92
N MYRTLE BEACH PTSUNNY   83  72  69 SE8       29.97F

$$

GAZ063-065-086>088-099>101-113>116-118-119-134>141-150-291700-
...SOUTHEAST GEORGIA...

CITY           SKY/WX    TMP DP  RH WIND       PRES   REMARKS
SAVANNAH ARPT  PTSUNNY   86  66  51 NW9G24    30.02S
HUNTER AAF     MOSUNNY   85  70  61 W6        30.00S
FORT STEWART   PTSUNNY   83  69  62 NW7       30.01S
STATESBORO     MOSUNNY   86  68  55 W10       30.02S
SYLVANIA       SUNNY     87  66  49 W8        30.03S
CLAXTON        FAIR      82  68  61 W6        30.03S HAZE

...CSRA...CENTRAL AND FAR SOUTHEAST GEORGIA...

CITY           SKY/WX    TMP DP  RH WIND       PRES   REMARKS
THOMSON        SUNNY     86  60  40 NW13      30.07S
AUGUSTA-BUSH   SUNNY     88  54  31 NW13      30.00F
AUGUSTA-DANIEL SUNNY     85  53  33 NW14G21   30.02F
SWAINSBORO     FAIR      88  63  42 W7        30.04S
VIDALIA        MOSUNNY   82  66  57 W5        30.04F
EASTMAN        FAIR      86  64  48 NW8       30.07S
HAZLEHURST     FAIR      83  69  62 CALM      30.04S
ALMA           PTSUNNY   83  68  60 NW6       30.04F
WAYCROSS       CLOUDY    86  74  68 W6        30.04S HX  94
JESUP          FAIR      86  72  62 NW6       30.04S HX  92
BAXLEY         FAIR      84  70  61 NW6       30.04S
BRUNSWICK      MOSUNNY   82  72  69 W3        30.04S
SAINT SIMONS   MOSUNNY   80  71  74 W5        30.03S

$$

SCZ027-028-034-036>038-045-046-048>050-GAZ119-141-291700-
...LAKE AND SUPPLEMENTAL COASTAL OBSERVATIONS...

STATION/POSITION TIME  TEMP    WIND        PRES    WAVE   SWELL
                       AIR SEA DIR/SP/G            HT/PER HT/PER/DIR
                 (UTC) (F)     (DEG/KT/KT) (MB)    (FT/S) (FT/S/D)
UPR LAKE MARION  NOT AVBL
WINYAH BAY       1445   83     290/  5     1014.0
LAKE MURRAY      1500   78     240/ 10/ 12 1014.9F
ACE BASIN NERRS  1445   84     310/  2     1016.0
FORT PULASKI     1500   81 84  280/  5/  7 1017.0S
SAPELO ISLAND    1500   79     240/  4     1017.0S

$$

ANZ835-935-AMZ111-154-330-350-352-354-370-450-454-472-291700-
...C-MAN AND BUOY OBSERVATIONS...

STATION/POSITION TIME  TEMP    WIND        PRES    WAVE   SWELL
                       AIR SEA DIR/SP/G            HT/PER HT/PER/DIR
                 (UTC) (F)     (DEG/KT/KT) (MB)    (FT/S) (FT/S/D)
BUOY 41004       1550   80 83  270/ 12/ 14 1015.5R   4/ 7   3/ 7
BUOY 41008       1550   75 80  280/  6/  8 1017.1S   2/ 9   2/120/ 9
FOLLY BEACH CMAN 1500   82     280/  5/  9 1015.9R
CAPERS NEARSHORE 1508   81     240/  8/ 12 1016.0R
FRIPP NEARSHORE  1500   81     230/  8/ 10 1016.2R


STATION/POSITION TIME  TEMP    WIND        PRES    WAVE   SWELL
                       AIR SEA DIR/SP/G            HT/PER HT/PER/DIR
                 (UTC) (F)     (DEG/KT/KT) (MB)    (FT/S) (FT/S/D)
5E ST. MARYS GA  1521      78                N/A     2/10
FRYING PAN BUOY  1550   80 80  270/  6/  8 1015.6R   5/ 7   5/160/ 7
BUOY 41025       1550   78 81  120/ 10/ 12 1015.7R   4/ 7   3/170/ 7
CAPE LOOKOUT NC  1500   78     120/ 11/ 12 1015.0F
BUOY 41002       1550   79 80  260/ 16/ 19 1018.4F   7/ 7
BUOY 41010       1520   84 84  270/ 12/ 14 1018.2F
ST AUGUSTINE FL  1600   83 74  270/ 11/ 15 1018.2R


$$



USA.gov is the U.S. government's official web portal to all federal, state and local government web resources and services.